Location: Newark
(55.8372°N, 37.1596°E)
Time: 18:03:33
(UTC+00:00)

Envisat - Pass Details

Date: 27 October 2019
Orbit: 764 x 766 km, 98.1° (Epoch: 12 November)

Event Time Altitude Azimuth Distance (km) Brightness Sun altitude
Rises 03:29:50 0° 22° (NNE) 3,247 6.4 -8.4°
Reaches altitude 10° 03:32:34 10° 35° (NE) 2,315 5.8 -8.1°
Maximum altitude 03:36:43 25° 90° (E) 1,525 5.7 -7.5°
Drops below altitude 10° 03:40:52 10° 145° (SE) 2,301 6.2 -6.9°
Sets 03:43:33 0° 159° (SSE) 3,222 6.8 -6.5°
